Regional Weather Roundup
Issued by NWS

Home | Current Version | Previous Version | Graphics & Text | Print | Product List | Glossary On
Versions: 1 2 3 4 5 6 7 8 9 10 11 12 13 14 15 16 17 18 19 20 21 22 23 24 25 26 27 28 29 30 31 32 33 34 35 36 37 38 39 40 41 42 43 44 45 46 47 48 49 50
000
ASUS43 KFSD 291102
RWRSD

WEATHER ROUNDUP FOR SOUTH DAKOTA
NATIONAL WEATHER SERVICE SIOUX FALLS SD
500 AM CST THU JAN 29 2015

NOTE: "FAIR" INDICATES FEW OR NO CLOUDS BELOW 12,000 FEET WITH NO
SIGNIFICANT WEATHER AND/OR OBSTRUCTIONS TO VISIBILITY.


SDZ001>005-009-010-012>017-291200-
NORTHWEST AND NORTH CENTRAL SOUTH DAKOTA

CITY           SKY/WX    TMP DP  RH WIND       PRES   REMARKS
BUFFALO          N/A     28  23  81 NW21      30.31S WCI  15
FAITH            N/A     33  21  61 NW23      30.35R WCI  21
MOBRIDGE       CLOUDY    34  25  69 N17       30.29R WCI  23
$$

SDZ012>016-024>037-041>051-057-063-072>074-291200-
SOUTHWEST AND SOUTH CENTRAL SOUTH DAKOTA

CITY           SKY/WX    TMP DP  RH WIND       PRES   REMARKS
RAPID CTY ARPT CLEAR     31  24  75 N18       30.38R WCI  19
PIERRE         CLOUDY    35  26  69 N21G30    30.32S WCI  24
CUSTER         CLEAR     26  -1  31 NE8       30.31R WCI  18
ELLSWORTH AFB  CLEAR     31  24  75 N20       30.37R WCI  18
PHILIP         CLOUDY    36  24  62 NW16G22   30.38R
PINE RIDGE     CLEAR     24  21  88 CALM      30.41R
WINNER         CLOUDY    36  26  67 NW21G28   30.33R
$$

SDZ004>011-016>023-039-040-291200-
NORTHEAST SOUTH DAKOTA

CITY           SKY/WX    TMP DP  RH WIND       PRES   REMARKS
ABERDEEN       CLOUDY    31  25  78 N15       30.29R WCI  20
WATERTOWN      CLOUDY    27  22  81 N24G32    30.19R WCI  12
SISSETON         N/A     27  22  81 N26G35    30.22R WCI  12
$$

SDZ017-020-022-023-036>040-048>070-291200-
SOUTHEAST SOUTH DAKOTA

CITY           SKY/WX    TMP DP  RH WIND       PRES   REMARKS
SIOUX FALLS    CLOUDY    31  25  78 NW24G32   30.18R WCI  17
HURON          CLOUDY    32  26  78 N20G29    30.27R WCI  20
MITCHELL       CLOUDY    35  29  78 NW22G30   30.27R WCI  23
YANKTON        CLOUDY    34  27  75 NW22G31   30.23R WCI  22
$$

ABBREVIATIONS USED IN REMARKS
   TC - TEMPERATURE IN CELSIUS
  WCI - WIND CHILL INDEX
   HX - HEAT INDEX
  VSB - VISIBILITY




USA.gov is the U.S. government's official web portal to all federal, state and local government web resources and services.